Satellite-Ground Cal/Val Site Overpasses Predictions

Prediction of Satellite NPP Overpassing Cal/Val Site: Antarctic Dome C

Ground Cal/Val Site Location: Latitude: -75.10, Longitude: 123.35; Satellite-Ground Site NADIR distance within 100 km.

Table of predicted overpasses for the next 14.0 days since TLE Epoch: 12/19/2014
Interval Starting Time Ending Time Minimum Distance Time Minimum Distance (km)
1 12/20/2014 07:39:22 12/20/2014 07:39:51 12/20/2014 07:39:37 7.05
2 12/23/2014 15:02:44 12/23/2014 15:03:13 12/23/2014 15:02:58 17.89
3 12/24/2014 14:44:02 12/24/2014 14:44:14 12/24/2014 14:44:08 89.23
4 12/25/2014 07:45:32 12/25/2014 07:45:58 12/25/2014 07:45:45 42.58
5 12/26/2014 07:26:43 12/26/2014 07:27:05 12/26/2014 07:26:54 67.38
6 12/28/2014 15:08:55 12/28/2014 15:09:19 12/28/2014 15:09:07 54.82
7 12/29/2014 14:50:03 12/29/2014 14:50:28 12/29/2014 14:50:15 54.50
8 12/30/2014 07:51:44 12/30/2014 07:52:02 12/30/2014 07:51:53 77.62


NCC Satellite Cal/Val Overpasses Prediction Service
